Location: Wildlife_Club
(35.6000°N, 81.4330°W)
Time: 01:55:11
(UTC-04:00)

A-11 Canister half - Pass Details

Date: 03 July 2019
Orbit: 1515 x 1685 km, 47.2° (Epoch: 15 July)

Event Time Altitude Azimuth Distance (km) Brightness Sun altitude
Rises 15:27:28 0° 303° (WNW) 4,848 11.9 61.6°
Reaches altitude 10° 15:30:38 10° 302° (WNW) 3,837 11.5 61.0°
Maximum altitude 15:40:18 73° 220° (SW) 1,630 10.9 59.1°
Drops below altitude 10° 15:49:37 10° 138° (SE) 3,699 11.0 57.2°
Sets 15:52:37 0° 136° (SE) 4,665 11.4 56.7°
